Theta_e
297 297 297 297 297 298 298 298 298 299 300 300 302 303 304 305 307 309 314 318 318 319 320 319 318 319 319 319 319 319 317 316 312 315 317 317 311 312 311 311 313 313 312
295 295 294 295 295 295 295 296 297 296 297 298 298 299 300 301 302 304 305 308 311 314 316 317 317 319 318 319 319 318 318 318 315 312 316 316 309 312 313 311 309 309 310
293 292 292 292 292 292 294 295 295 294 294 295 295 295 296 297 299 301 303 304 306 309 311 314 315 317 317 317 317 317 318 318 317 315 314 317 315 300 307 304 308 305 305
292 290 290 290 291 292 293 293 293 292 292 292 292 293 293 294 295 297 300 300 301 304 307 310 312 314 315 316 316 317 317 316 315 314 314 314 309 297 302 304 293 292 300
291 290 289 290 291 291 291 291 291 290 290 290 290 290 291 292 293 293 294 294 295 297 299 302 306 305 298 303 311 314 315 314 313 311 310 311 301 287 295 301 302 304 295
291 289 289 290 289 288 289 288 288 288 288 288 288 288 288 289 292 293 293 292 292 292 293 295 299 297 301 299 299 300 305 311 312 311 310 308 308 300 303 303 299 287 289
291 289 288 288 286 286 286 286 286 286 287 286 286 287 287 288 291 292 291 290 291 290 291 292 294 297 295 302 303 301 300 299 302 308 308 309 308 305 303 298 298 294 300
289 288 287 286 285 285 284 284 284 284 284 285 286 286 286 287 290 291 290 289 289 290 291 291 292 292 294 296 299 300 303 305 307 305 306 308 310 310 305 302 300 293 286
287 286 286 285 284 284 284 284 284 284 284 284 285 285 284 285 289 290 290 288 287 287 288 289 290 291 293 294 295 295 297 299 302 300 301 303 303 303 304 298 289 288 285
286 286 285 285 284 284 284 284 283 282 285 285 285 285 285 285 288 289 289 286 285 286 287 287 286 287 291 293 293 294 294 297 298 296 295 298 297 299 297 301 299 292 287
284 284 284 284 283 283 284 283 283 283 283 284 284 285 285 285 285 289 290 287 286 286 287 287 287 290 292 292 294 293 293 296 295 295 295 292 288 291 296 296 298 296 290
282 282 282 281 282 283 281 283 282 281 281 282 282 283 285 285 285 287 289 290 289 287 286 288 288 291 291 291 291 292 294 295 294 293 291 291 289 285 284 284 285 285 286
277 276 277 279 280 281 280 281 281 282 282 282 282 283 284 285 285 288 290 290 290 288 288 289 291 291 290 290 291 291 290 290 291 291 290 290 288 286 283 281 280 280 278
271 272 274 275 275 276 278 280 280 281 281 282 282 282 283 284 284 283 282 283 285 288 288 288 289 289 289 289 288 289 289 290 291 291 290 287 282 282 281 281 280 280 278
270 271 272 272 273 274 276 277 278 279 281 281 282 282 282 282 283 286 286 284 284 286 286 286 286 286 286 287 287 288 288 289 289 289 286 281 282 282 281 281 280 280 277
267 268 269 269 270 271 271 272 277 279 280 282 284 284 283 286 287 287 287 287 287 287 285 284 284 285 285 286 286 287 288 287 288 288 284 283 282 281 280 280 280 279 277
264 266 266 267 267 267 268 269 269 273 278 279 280 282 284 284 284 284 285 285 286 285 283 283 283 284 285 285 286 287 287 287 288 286 284 283 282 281 279 278 278 277 275
262 263 264 264 265 266 267 267 268 267 268 270 275 278 280 281 281 282 282 282 279 280 281 281 282 284 285 285 286 287 287 287 286 285 284 283 281 279 279 278 276 274 273
261 262 263 263 264 265 266 266 267 267 268 269 269 272 273 277 278 279 280 277 277 278 280 282 283 284 285 286 287 287 287 287 286 285 284 282 280 280 278 277 275 274 273
261 262 263 264 264 264 265 265 265 265 265 266 267 267 269 270 270 270 272 274 276 278 280 282 284 285 286 286 287 287 287 286 285 284 281 280 279 279 277 275 274 273 272
262 262 262 262 262 262 263 262 263 263 263 264 265 267 272 270 270 271 271 273 274 276 278 281 283 286 286 287 287 287 286 284 282 280 279 279 279 277 276 275 274 272 268
261 261 261 261 261 261 262 262 262 263 263 263 264 266 271 268 268 269 270 272 274 276 278 280 282 285 287 287 287 286 283 281 280 279 279 278 278 276 274 273 271 269 268
261 260 260 261 261 261 261 262 262 263 263 264 265 265 266 267 268 269 270 272 274 277 279 282 283 286 287 287 287 285 282 281 280 280 278 276 275 274 272 271 269 268 267
261 261 260 260 261 261 262 263 264 265 266 266 267 267 267 268 269 270 272 275 277 277 278 279 282 285 285 283 283 283 282 281 280 278 277 275 273 272 271 270 269 267 266
260 260 259 259 260 260 261 262 263 264 264 266 266 267 268 268 268 268 268 269 269 269 270 272 274 277 278 278 278 278 278 278 277 277 275 274 272 271 270 268 267 266 264
259 259 259 260 259 260 260 260 261 262 262 263 264 264 264 265 265 265 265 265 266 266 267 269 270 272 273 274 275 276 276 275 274 274 273 271 269 268 267 266 265 263 262
Wind_Speed
6 6 6 5 4 4 3 2 3 4 5 5 6 6 7 8 9 9 10 12 15 15 13 14 17 15 12 12 11 12 13 13 17 17 13 11 10 14 12 14 14 14 14
6 6 5 4 3 3 2 3 4 4 4 5 5 5 6 7 8 9 11 11 12 14 14 15 17 11 17 15 13 16 15 15 15 24 16 12 12 15 17 16 13 10 12
6 6 4 3 3 3 3 3 4 5 5 5 5 6 6 7 8 9 10 12 13 14 14 15 18 15 16 13 14 14 13 13 15 15 19 13 12 4 12 9 13 14 12
6 6 5 2 0 2 3 4 4 4 5 5 5 6 6 6 8 9 8 10 12 13 14 14 16 15 17 17 14 16 15 14 13 15 14 17 10 4 8 11 7 5 12
7 6 5 3 2 2 3 5 5 5 6 6 7 6 6 6 6 7 8 10 11 13 13 14 14 15 17 16 12 16 16 13 12 13 14 12 6 3 10 11 15 13 9
7 7 6 4 2 2 4 5 6 6 7 7 7 8 8 6 10 14 13 11 11 12 14 13 14 14 15 17 18 21 18 16 19 15 14 16 14 11 12 13 13 2 5
7 7 5 4 3 4 5 6 7 7 6 8 8 8 11 9 13 15 16 11 12 12 13 14 14 10 10 15 17 19 19 22 23 17 19 19 18 8 12 11 12 10 14
8 7 5 4 4 5 6 7 7 5 7 9 11 10 12 10 15 17 18 14 13 14 14 15 15 15 11 13 16 18 19 18 14 11 15 18 18 16 12 16 17 6 3
7 6 6 5 5 6 7 8 7 7 9 9 10 11 12 14 15 16 14 12 13 15 14 13 14 15 15 15 17 18 21 20 15 18 21 25 24 23 17 6 4 7 3
4 4 4 5 5 7 8 9 5 6 12 10 13 12 14 17 15 16 14 9 13 12 14 11 13 13 18 16 14 15 20 17 12 12 9 13 14 16 17 15 11 11 5
4 6 6 6 7 8 9 7 9 10 11 12 14 14 14 14 15 19 19 11 10 12 13 13 8 13 17 20 20 16 21 20 19 14 11 9 6 9 9 11 13 12 9
6 6 7 7 7 7 8 10 9 8 11 13 14 16 11 12 16 16 20 23 20 14 15 13 12 16 25 27 22 25 28 24 15 13 10 10 8 4 1 2 4 5 3
8 9 9 9 9 9 9 11 10 9 10 12 12 14 16 11 9 13 17 21 23 17 13 18 25 30 30 26 26 26 21 12 12 14 12 11 7 4 6 6 8 13 13
9 10 9 9 10 9 8 9 10 10 11 12 12 14 15 16 11 6 5 6 12 13 16 14 18 27 31 28 20 15 11 11 11 12 12 4 4 7 6 5 7 8 10
10 9 10 9 9 11 10 10 11 12 14 14 13 14 15 20 13 15 14 12 12 14 20 17 16 15 16 16 15 12 11 11 10 10 6 6 6 7 6 6 8 8 8
11 9 9 10 9 10 11 13 20 27 30 31 32 26 18 32 38 32 32 33 35 30 18 18 18 16 16 17 16 13 11 13 11 9 7 8 8 9 9 8 7 6 12
11 11 10 11 11 12 11 13 17 14 27 30 31 33 33 35 37 38 35 35 37 30 17 18 19 19 18 17 15 13 13 13 11 9 10 10 9 9 12 9 8 10 10
12 15 11 10 11 11 12 13 13 16 18 14 19 24 27 32 35 35 35 33 21 17 16 17 17 17 16 16 14 13 12 11 10 10 9 10 10 11 11 11 10 12 12
11 10 11 11 12 13 13 13 14 15 16 18 16 19 19 29 33 34 34 18 17 17 15 15 15 16 16 14 12 12 12 11 11 10 10 10 10 11 10 11 11 14 16
10 15 15 12 12 13 12 13 14 15 16 16 16 15 13 15 14 14 13 14 15 15 14 16 16 15 14 13 12 12 12 11 9 9 8 9 10 10 11 14 14 13 11
9 11 15 13 12 12 13 14 14 14 15 15 16 16 29 19 17 16 15 14 15 15 16 16 15 13 12 12 13 12 11 9 10 10 10 11 12 12 11 12 13 13 15
10 10 11 12 12 13 13 13 14 15 16 17 17 18 33 17 16 16 16 16 16 16 15 16 16 15 13 12 12 11 11 11 11 11 12 12 12 12 13 13 14 15 15
10 12 12 12 12 16 14 13 14 15 16 16 17 17 16 15 15 16 17 16 16 16 15 16 16 14 12 11 11 12 11 11 12 12 13 13 13 13 14 15 16 15 14
9 11 12 12 11 12 14 14 14 17 17 16 16 16 16 16 16 18 16 14 13 15 16 15 16 19 10 8 6 6 7 9 10 13 18 16 15 16 14 15 14 18 15
8 10 10 11 11 12 13 13 14 14 14 14 14 14 13 13 13 12 10 8 6 6 6 6 5 2 5 7 9 11 13 18 15 17 13 17 19 20 16 15 16 16 17
8 9 9 9 10 10 11 11 13 13 13 12 11 11 11 10 8 8 7 6 5 5 6 6 8 10 10 9 13 17 18 19 17 20 16 17 17 15 15 18 21 15 17
Wind_Direction
121 118 114 109 99 94 86 46 8 341 339 333 325 319 318 315 310 301 288 280 271 270 260 255 253 250 248 247 240 243 246 244 257 265 258 249 216 222 227 223 228 221 224
139 128 123 119 102 83 48 12 355 338 323 316 314 313 313 314 310 306 300 294 287 284 279 270 264 254 251 248 251 254 247 241 249 263 257 251 222 219 227 221 222 224 232
145 135 122 88 57 18 341 331 335 328 321 318 318 315 315 310 305 300 297 298 295 290 287 281 279 277 269 261 254 252 250 254 257 260 261 260 245 206 225 237 221 220 219
159 149 132 134 149 288 294 302 305 305 306 304 295 289 287 291 291 288 291 302 299 294 293 290 287 279 274 274 272 266 265 262 265 263 275 269 246 219 241 230 249 234 218
173 164 173 184 213 276 293 297 296 294 287 280 284 280 269 270 273 287 293 293 290 291 291 285 279 278 279 275 278 278 279 272 264 272 268 286 254 208 210 223 234 228 227
182 191 189 198 235 283 296 301 300 286 277 273 267 270 277 270 269 278 284 287 287 286 290 288 285 283 278 271 263 257 254 268 272 265 275 278 271 234 241 233 229 174 232
184 194 196 200 260 287 293 294 287 278 270 278 279 279 280 273 266 262 268 273 277 277 278 282 285 281 288 290 285 272 258 247 244 262 270 269 276 260 238 227 217 216 228
194 198 202 211 257 285 290 281 276 270 278 289 287 279 282 282 274 264 264 270 271 271 268 269 273 283 280 287 290 286 282 278 262 240 246 264 267 267 238 225 230 225 35
202 210 218 222 258 277 278 276 274 285 288 276 273 277 273 278 272 264 264 271 274 275 272 265 261 273 276 278 285 284 283 280 278 259 255 264 266 271 260 221 188 166 188
248 269 283 300 289 282 274 280 270 257 276 278 278 269 268 276 273 268 261 265 277 279 276 264 245 258 272 269 276 282 279 282 283 278 264 261 260 262 253 229 218 213 164
337 330 316 293 274 266 273 267 272 271 275 277 277 275 270 265 273 265 261 255 258 274 277 285 269 263 276 285 279 277 277 291 286 277 273 265 250 248 245 224 219 206 187
346 321 297 282 275 275 267 279 270 269 274 278 281 284 273 267 257 259 248 238 243 253 267 277 283 282 291 288 287 282 283 283 280 276 264 260 242 219 233 86 96 86 67
327 308 300 296 295 289 283 288 287 275 271 278 278 283 288 280 271 255 251 246 244 251 260 269 276 289 290 289 285 285 284 271 267 269 259 253 217 159 124 97 87 94 72
311 307 304 297 294 287 280 279 278 276 274 273 274 277 283 285 283 272 246 251 259 263 273 275 280 284 280 277 282 275 266 258 255 256 256 240 145 157 164 160 139 131 103
312 306 301 294 295 295 283 282 277 271 270 277 273 276 282 281 283 284 292 292 286 279 289 282 279 277 277 275 272 266 265 262 251 250 225 186 185 171 166 165 156 157 131
313 311 306 302 297 294 294 290 275 280 279 275 275 270 273 271 283 283 285 286 285 286 280 276 273 268 267 270 270 268 257 254 244 227 199 194 192 181 167 163 163 155 137
307 306 303 303 300 298 295 293 298 288 283 282 281 279 275 278 282 286 285 285 283 287 268 271 269 270 269 268 266 264 263 254 244 216 198 193 187 181 169 159 155 143 139
303 300 295 293 290 287 286 286 287 292 295 286 276 275 282 284 284 283 286 288 281 268 261 263 265 265 265 264 263 262 260 251 231 217 208 189 180 175 172 158 152 146 142
296 294 293 290 286 283 284 282 280 280 282 291 297 286 282 280 282 281 281 274 273 270 264 259 258 261 263 260 258 259 250 237 229 214 202 186 171 171 164 149 137 141 135
290 285 284 286 287 288 286 285 285 281 282 283 286 289 292 289 282 278 269 268 268 269 267 264 259 251 248 252 252 250 246 231 211 196 184 171 165 165 155 141 134 137 124
293 297 291 286 284 285 284 281 281 281 281 281 282 282 283 283 284 279 275 267 266 265 264 267 268 264 254 254 254 243 230 204 193 178 170 166 161 153 144 132 130 121 117
289 290 286 283 285 283 280 279 278 277 277 278 282 282 285 281 276 274 273 271 265 263 263 263 261 259 253 250 245 225 201 189 179 171 167 159 151 142 132 128 124 120 122
292 291 289 287 284 285 283 279 278 277 277 277 279 281 279 274 272 270 269 268 266 265 262 265 251 251 254 247 232 210 194 189 176 163 154 147 141 135 132 129 127 125 125
296 295 294 294 295 294 293 293 288 285 285 282 278 274 273 274 273 271 273 274 285 285 279 270 265 257 243 217 195 178 164 155 153 153 145 140 133 130 126 123 124 125 123
297 299 300 302 303 305 303 301 300 299 299 297 298 296 296 295 295 293 292 297 300 305 310 317 321 71 149 147 136 130 135 139 139 139 133 129 125 124 122 119 124 119 124
301 303 308 311 310 311 307 310 308 305 303 304 306 303 306 307 304 308 318 319 320 343 1 11 32 57 76 95 112 119 122 125 125 125 124 121 117 116 116 118 120 121 124